DLH490 EDDF-KSEA

Flight info

Callsign DLH490
Flight time N/A
Altitude 34000
Route MARUN2D MARUN Y152 ARPEG Z850 ABILU DCT ATPAQ DCT OMIMA DCT KARLI/N0461F360 DCT ISVIG/M080F360 DCT 67N010W 70N020W 73N040W/M080F380 74N060W DCT DAPAK/N0459F380 DCT 73N080W 71N090W 68N100W 66N105W 62N110W DCT YSM/N0467F400 DCT 55N116W DCT LONRO DCT YDC DCT JAKSN GLASR3
Aircraft A343/H-SDE2E3FGHIJ3J5M1P2RWXYZ/LB1D1

Departure

Time 2026-04-15 09:13
Airport Frankfurt Main Airport (EDDF)

Arrival

Time N/A
Airport Seattle–Tacoma International Airport (KSEA)
Time Latitude Longitude Altitude Speed Heading
2026-04-15 07:42 50.04002 8.54540 353 ft 0 kts 250°
2026-04-15 09:01 50.04002 8.54541 352 ft 1 kts 250°
2026-04-15 09:01 50.04010 8.54576 352 ft 4 kts 250°
2026-04-15 09:02 50.04020 8.54615 362 ft 4 kts 245°
2026-04-15 09:02 50.04033 8.54648 362 ft 4 kts 206°
2026-04-15 09:02 50.04043 8.54653 353 ft 2 kts 160°
2026-04-15 09:02 50.04026 8.54662 353 ft 0 kts 159°
2026-04-15 09:08 50.04023 8.54664 353 ft 1 kts 160°
2026-04-15 09:08 50.04014 8.54669 352 ft 2 kts 160°
2026-04-15 09:08 50.04001 8.54677 359 ft 2 kts 160°
2026-04-15 09:08 50.03985 8.54685 352 ft 2 kts 162°
2026-04-15 09:09 50.03968 8.54686 353 ft 3 kts 183°
2026-04-15 09:09 50.03951 8.54674 361 ft 3 kts 208°
2026-04-15 09:09 50.03927 8.54627 353 ft 8 kts 243°
2026-04-15 09:09 50.03898 8.54511 356 ft 14 kts 249°
2026-04-15 09:10 50.03862 8.54376 358 ft 13 kts 238°
2026-04-15 09:10 50.03793 8.54343 359 ft 11 kts 169°
2026-04-15 09:10 50.03720 8.54379 354 ft 9 kts 167°
2026-04-15 09:10 50.03663 8.54349 355 ft 9 kts 224°
2026-04-15 09:11 50.03611 8.54315 349 ft 8 kts 176°
2026-04-15 09:11 50.03557 8.54341 354 ft 8 kts 161°
2026-04-15 09:11 50.03518 8.54362 356 ft 4 kts 160°
2026-04-15 09:11 50.03495 8.54395 347 ft 4 kts 115°
2026-04-15 09:12 50.03496 8.54435 355 ft 4 kts 78°
2026-04-15 09:12 50.03507 8.54479 356 ft 6 kts 70°
2026-04-15 09:12 50.03554 8.54680 355 ft 43 kts 70°
2026-04-15 09:12 50.03720 8.55378 357 ft 93 kts 69°
2026-04-15 09:13 50.03892 8.56098 363 ft 121 kts 69°
2026-04-15 09:13 50.04227 8.57505 377 ft 155 kts 70°
2026-04-15 09:13 50.04604 8.59066 842 ft 151 kts 69°
2026-04-15 09:13 50.05091 8.61104 1473 ft 152 kts 71°
2026-04-15 09:14 50.05443 8.62727 1814 ft 167 kts 72°
2026-04-15 09:14 50.05703 8.63928 1979 ft 179 kts 71°
2026-04-15 09:14 50.06132 8.65812 2365 ft 191 kts 71°
2026-04-15 09:14 50.06579 8.67836 2726 ft 205 kts 72°
2026-04-15 09:15 50.07097 8.69973 3195 ft 215 kts 63°
2026-04-15 09:15 50.08089 8.71680 3774 ft 224 kts 32°
2026-04-15 09:15 50.09569 8.72755 4105 ft 244 kts 24°
2026-04-15 09:15 50.11180 8.73791 4669 ft 255 kts 24°
2026-04-15 09:16 50.12834 8.74857 5406 ft 258 kts 24°
2026-04-15 09:16 50.14515 8.75932 6037 ft 266 kts 24°
2026-04-15 09:16 50.16253 8.77058 6627 ft 274 kts 23°
2026-04-15 09:16 50.18024 8.78244 7272 ft 278 kts 24°
2026-04-15 09:17 50.19793 8.79470 7990 ft 280 kts 24°
2026-04-15 09:17 50.21581 8.80705 8649 ft 283 kts 24°
2026-04-15 09:17 50.23393 8.81952 9332 ft 285 kts 23°
2026-04-15 09:17 50.25195 8.83174 9996 ft 287 kts 23°
2026-04-15 09:18 50.27065 8.84306 10551 ft 292 kts 14°
2026-04-15 09:18 50.29118 8.84591 10827 ft 304 kts 354°
2026-04-15 09:18 50.31264 8.84190 11112 ft 318 kts 351°
2026-04-15 09:18 50.33492 8.83692 11392 ft 331 kts 353°
2026-04-15 09:19 50.35831 8.83229 11673 ft 343 kts 353°
2026-04-15 09:19 50.38242 8.82746 11953 ft 355 kts 352°
2026-04-15 09:19 50.40716 8.82234 12374 ft 362 kts 352°
2026-04-15 09:19 50.43227 8.81706 12868 ft 366 kts 352°
2026-04-15 09:20 50.45769 8.81166 13427 ft 370 kts 352°
2026-04-15 09:20 50.48323 8.80625 13982 ft 373 kts 352°
2026-04-15 09:20 50.50907 8.80074 14499 ft 375 kts 352°
2026-04-15 09:20 50.53502 8.79520 15029 ft 377 kts 352°
2026-04-15 09:21 50.56110 8.78952 15565 ft 379 kts 351°
2026-04-15 09:21 50.58690 8.78058 16072 ft 380 kts 344°
2026-04-15 09:21 50.61237 8.76921 16605 ft 382 kts 343°
2026-04-15 09:21 50.63798 8.75749 17081 ft 385 kts 343°
2026-04-15 09:22 50.66380 8.74566 17573 ft 388 kts 344°
2026-04-15 09:22 50.68985 8.73375 18080 ft 390 kts 344°
2026-04-15 09:22 50.71574 8.72193 18553 ft 393 kts 344°
2026-04-15 09:22 50.74216 8.70988 18971 ft 396 kts 344°
2026-04-15 09:23 50.76873 8.69774 19379 ft 399 kts 344°
2026-04-15 09:23 50.79527 8.68458 19769 ft 402 kts 339°
2026-04-15 09:23 50.82028 8.66460 20144 ft 404 kts 326°
2026-04-15 09:23 50.84184 8.63606 20567 ft 405 kts 316°
2026-04-15 09:24 50.86135 8.60382 20993 ft 407 kts 313°
2026-04-15 09:24 50.88005 8.57002 21375 ft 409 kts 311°
2026-04-15 09:24 50.89841 8.53534 21778 ft 412 kts 310°
2026-04-15 09:24 50.91671 8.50027 22154 ft 414 kts 310°
2026-04-15 09:25 50.93522 8.46479 22610 ft 415 kts 310°
2026-04-15 09:25 50.95361 8.42977 22996 ft 417 kts 311°
2026-04-15 09:25 50.97233 8.39437 23363 ft 420 kts 311°
2026-04-15 09:25 50.99120 8.35881 23707 ft 422 kts 311°
2026-04-15 09:26 51.01129 8.32464 24049 ft 424 kts 319°
2026-04-15 09:26 51.03459 8.29588 24348 ft 426 kts 327°
2026-04-15 09:26 51.05941 8.27105 24681 ft 427 kts 329°
2026-04-15 09:26 51.08534 8.24708 25048 ft 427 kts 331°
2026-04-15 09:27 51.11102 8.22428 25352 ft 428 kts 332°
2026-04-15 09:27 51.13715 8.20145 25673 ft 429 kts 332°
2026-04-15 09:27 51.16328 8.17859 25975 ft 429 kts 332°
2026-04-15 09:27 51.18944 8.15556 26292 ft 430 kts 332°
2026-04-15 09:28 51.21569 8.13229 26585 ft 431 kts 331°
2026-04-15 09:28 51.24194 8.10889 26896 ft 431 kts 331°
2026-04-15 09:28 51.26817 8.08540 27191 ft 432 kts 331°
2026-04-15 09:28 51.29443 8.06181 27466 ft 433 kts 331°
2026-04-15 09:29 51.32075 8.03814 27782 ft 434 kts 331°
2026-04-15 09:29 51.34707 8.01444 28056 ft 434 kts 331°
2026-04-15 09:29 51.37311 7.99110 28307 ft 436 kts 332°
2026-04-15 09:29 51.40066 7.97074 28585 ft 438 kts 339°
2026-04-15 09:30 51.42988 7.95662 28794 ft 441 kts 347°
2026-04-15 09:30 51.46019 7.94839 29011 ft 444 kts 351°
2026-04-15 09:30 51.49093 7.94205 29226 ft 445 kts 352°
2026-04-15 09:30 51.52175 7.93662 29476 ft 446 kts 353°
2026-04-15 09:31 51.55269 7.93156 29736 ft 447 kts 353°
2026-04-15 09:31 51.58380 7.92654 29947 ft 449 kts 353°
2026-04-15 09:31 51.61496 7.92142 30162 ft 450 kts 353°
2026-04-15 09:31 51.64609 7.91618 30377 ft 450 kts 353°
2026-04-15 09:32 51.67728 7.91083 30636 ft 449 kts 352°
2026-04-15 09:32 51.70823 7.90547 30901 ft 447 kts 352°
2026-04-15 09:32 51.73915 7.90008 31155 ft 446 kts 352°
2026-04-15 09:32 51.76995 7.89470 31411 ft 445 kts 352°
2026-04-15 09:33 51.80070 7.88932 31715 ft 443 kts 352°
2026-04-15 09:33 51.83120 7.88399 32009 ft 440 kts 352°
2026-04-15 09:33 51.86167 7.87865 32245 ft 439 kts 352°
2026-04-15 09:33 51.89202 7.87332 32468 ft 438 kts 352°
2026-04-15 09:34 51.92183 7.86807 32690 ft 437 kts 352°
2026-04-15 09:34 51.95208 7.86275 32903 ft 436 kts 352°
2026-04-15 09:34 51.98218 7.85745 33125 ft 435 kts 352°
2026-04-15 09:34 52.01222 7.85216 33335 ft 434 kts 352°
2026-04-15 09:35 52.07263 7.84148 33420 ft 439 kts 352°
2026-04-15 09:35 52.10291 7.83608 33613 ft 438 kts 352°
2026-04-15 09:35 52.13313 7.83069 33841 ft 436 kts 352°
2026-04-15 09:36 52.16323 7.82533 34038 ft 435 kts 352°
2026-04-15 09:36 52.19328 7.81997 34199 ft 434 kts 352°
2026-04-15 09:36 52.25324 7.80925 34235 ft 430 kts 352°
2026-04-15 09:37 52.31257 7.79859 34242 ft 428 kts 352°
2026-04-15 09:37 52.37146 7.78797 34240 ft 428 kts 352°
2026-04-15 09:38 52.43079 7.77726 34239 ft 429 kts 352°
2026-04-15 09:38 52.49012 7.76652 34234 ft 429 kts 352°
2026-04-15 09:39 52.54892 7.75240 34233 ft 426 kts 345°
2026-04-15 09:39 52.60635 7.72894 34233 ft 425 kts 343°
2026-04-15 09:40 52.66352 7.70397 34229 ft 424 kts 343°
2026-04-15 09:40 52.72054 7.67875 34233 ft 424 kts 343°
2026-04-15 09:41 52.77759 7.65354 34231 ft 424 kts 343°
2026-04-15 09:41 52.83448 7.62842 34222 ft 423 kts 343°
2026-04-15 09:42 52.89145 7.60322 34222 ft 423 kts 343°
2026-04-15 09:42 52.94808 7.57808 34221 ft 426 kts 343°
2026-04-15 09:43 53.00555 7.55250 34222 ft 428 kts 343°
2026-04-15 09:43 53.06308 7.52686 34216 ft 427 kts 343°
2026-04-15 09:44 53.12047 7.50120 34214 ft 427 kts 343°
2026-04-15 09:44 53.17777 7.47550 34224 ft 427 kts 342°
2026-04-15 09:45 53.23511 7.44970 34227 ft 427 kts 342°
2026-04-15 09:45 53.29246 7.42383 34233 ft 427 kts 342°
2026-04-15 09:46 53.34980 7.39791 34236 ft 427 kts 342°
2026-04-15 09:46 53.40720 7.37188 34238 ft 427 kts 342°
2026-04-15 09:47 53.46449 7.34581 34208 ft 427 kts 342°
2026-04-15 09:47 53.52152 7.31978 34221 ft 427 kts 342°
2026-04-15 09:48 53.57874 7.29363 34207 ft 425 kts 342°
2026-04-15 09:48 53.63583 7.26744 34209 ft 426 kts 342°
2026-04-15 09:49 53.69339 7.24092 34214 ft 431 kts 342°
2026-04-15 09:49 53.75127 7.21421 34215 ft 431 kts 342°
2026-04-15 09:50 53.80917 7.18744 34214 ft 430 kts 342°
2026-04-15 09:50 53.86682 7.16073 34219 ft 429 kts 342°
2026-04-15 09:51 53.92447 7.13392 34219 ft 429 kts 342°
2026-04-15 09:51 53.98201 7.10707 34222 ft 429 kts 342°
2026-04-15 09:52 54.03925 7.08028 34244 ft 429 kts 342°
2026-04-15 09:52 54.09673 7.05332 34225 ft 428 kts 342°
2026-04-15 09:53 54.15407 7.02633 34228 ft 428 kts 342°
2026-04-15 09:53 54.21153 6.99920 34222 ft 428 kts 342°
2026-04-15 09:54 54.26885 6.97206 34222 ft 428 kts 342°
2026-04-15 09:54 54.32626 6.94483 34227 ft 427 kts 341°
2026-04-15 09:55 54.38348 6.91757 34222 ft 429 kts 341°
2026-04-15 09:55 54.44117 6.88999 34221 ft 432 kts 341°
2026-04-15 09:56 54.49910 6.86229 34219 ft 431 kts 341°
2026-04-15 09:57 54.58581 6.82064 34221 ft 431 kts 341°
2026-04-15 09:57 54.64314 6.79298 34216 ft 430 kts 341°
2026-04-15 09:58 54.70074 6.76509 34219 ft 430 kts 341°
2026-04-15 09:58 54.75842 6.73711 34219 ft 430 kts 341°
2026-04-15 09:59 54.81613 6.70902 34211 ft 430 kts 341°
2026-04-15 09:59 54.87323 6.68116 34216 ft 428 kts 341°
2026-04-15 10:00 54.93058 6.65309 34216 ft 428 kts 341°
2026-04-15 10:00 54.98785 6.62496 34215 ft 428 kts 341°
2026-04-15 10:01 55.03583 6.60103 34215 ft 427 kts 340°
2026-04-15 10:01 55.09268 6.57088 34224 ft 428 kts 339°
2026-04-15 10:02 55.14982 6.54019 34211 ft 430 kts 340°
2026-04-15 10:02 55.20719 6.50966 34211 ft 431 kts 340°
2026-04-15 10:03 55.26456 6.47918 34210 ft 431 kts 340°
2026-04-15 10:03 55.32168 6.44876 34203 ft 431 kts 340°
2026-04-15 10:04 55.37904 6.41812 34204 ft 430 kts 339°
2026-04-15 10:04 55.43630 6.38744 34205 ft 430 kts 339°
2026-04-15 10:05 55.49351 6.35669 34203 ft 430 kts 339°
2026-04-15 10:05 55.55074 6.32583 34208 ft 430 kts 339°
2026-04-15 10:06 55.60790 6.29493 34211 ft 429 kts 339°
2026-04-15 10:06 55.66496 6.26395 34200 ft 428 kts 339°
2026-04-15 10:07 55.72187 6.23297 34200 ft 427 kts 339°
2026-04-15 10:07 55.77861 6.20199 34203 ft 427 kts 339°
2026-04-15 10:08 55.83511 6.17104 34201 ft 429 kts 339°
2026-04-15 10:08 55.89261 6.13949 34203 ft 434 kts 339°
2026-04-15 10:09 55.95036 6.10763 34197 ft 433 kts 339°
2026-04-15 10:09 56.00798 6.07578 34197 ft 433 kts 339°
2026-04-15 10:10 56.06524 6.04404 34201 ft 433 kts 339°
2026-04-15 10:10 56.12289 6.01197 34200 ft 433 kts 339°
2026-04-15 10:11 56.18040 5.97988 34212 ft 433 kts 339°
2026-04-15 10:11 56.23786 5.94773 34194 ft 431 kts 339°
2026-04-15 10:12 56.29516 5.91555 34197 ft 431 kts 339°
2026-04-15 10:12 56.35247 5.88328 34199 ft 431 kts 339°
2026-04-15 10:13 56.40980 5.85088 34203 ft 431 kts 339°
2026-04-15 10:13 56.46676 5.81861 34205 ft 430 kts 339°
2026-04-15 10:14 56.52383 5.78617 34206 ft 429 kts 339°
2026-04-15 10:14 56.58100 5.75352 34196 ft 433 kts 339°
2026-04-15 10:15 56.63873 5.72047 34200 ft 436 kts 339°
2026-04-15 10:15 56.69654 5.68730 34200 ft 436 kts 339°
2026-04-15 10:16 56.75435 5.65403 34200 ft 435 kts 339°
2026-04-15 10:16 56.81209 5.62069 34199 ft 434 kts 339°
2026-04-15 10:17 56.86969 5.58734 34203 ft 434 kts 339°
2026-04-15 10:17 56.92727 5.55388 34203 ft 434 kts 339°
2026-04-15 10:18 56.98447 5.52052 34209 ft 434 kts 339°
2026-04-15 10:18 57.04143 5.48446 34209 ft 431 kts 335°
2026-04-15 10:19 57.09653 5.44135 34214 ft 429 kts 333°
2026-04-15 10:19 57.15139 5.39776 34200 ft 429 kts 334°
2026-04-15 10:20 57.20644 5.35511 34216 ft 430 kts 334°
2026-04-15 10:20 57.26207 5.31260 34339 ft 433 kts 334°
2026-04-15 10:20 57.28999 5.29130 34483 ft 433 kts 334°
2026-04-15 10:21 57.31783 5.27003 34620 ft 433 kts 334°
2026-04-15 10:21 57.34566 5.24869 34732 ft 433 kts 334°
2026-04-15 10:21 57.37351 5.22729 34822 ft 433 kts 334°
2026-04-15 10:21 57.40096 5.20618 34924 ft 433 kts 334°
2026-04-15 10:22 57.42881 5.18470 35029 ft 433 kts 334°
2026-04-15 10:22 57.45665 5.16320 35160 ft 433 kts 334°
2026-04-15 10:22 57.48445 5.14170 35272 ft 433 kts 334°
2026-04-15 10:22 57.51222 5.12018 35379 ft 433 kts 334°
2026-04-15 10:23 57.54001 5.09860 35496 ft 433 kts 334°
2026-04-15 10:23 57.56782 5.07699 35610 ft 432 kts 335°
2026-04-15 10:23 57.59565 5.05528 35706 ft 433 kts 334°
2026-04-15 10:24 57.65118 5.01187 35909 ft 432 kts 334°
2026-04-15 10:24 57.70671 4.96835 36082 ft 432 kts 335°
2026-04-15 10:25 57.76186 4.92498 36201 ft 434 kts 334°
2026-04-15 10:25 57.81756 4.88102 36199 ft 433 kts 334°
2026-04-15 10:26 57.87303 4.83711 36192 ft 434 kts 334°
2026-04-15 10:26 57.92900 4.79265 36193 ft 438 kts 334°
2026-04-15 10:27 57.98516 4.74793 36194 ft 438 kts 334°
2026-04-15 10:27 58.04126 4.70311 36195 ft 438 kts 334°
2026-04-15 10:28 58.09733 4.65817 36186 ft 438 kts 334°
2026-04-15 10:28 58.15318 4.61321 36187 ft 438 kts 334°
2026-04-15 10:29 58.20930 4.56791 36192 ft 439 kts 334°
2026-04-15 10:29 58.26545 4.52245 36192 ft 439 kts 334°
2026-04-15 10:30 58.32154 4.47681 36191 ft 438 kts 334°
2026-04-15 10:30 58.37759 4.43101 36181 ft 438 kts 334°
2026-04-15 10:31 58.43372 4.38504 36176 ft 439 kts 334°
2026-04-15 10:31 58.48983 4.33889 36179 ft 440 kts 334°
2026-04-15 10:32 58.54641 4.29221 36182 ft 444 kts 334°
2026-04-15 10:32 58.60327 4.24520 36170 ft 444 kts 334°
2026-04-15 10:33 58.65966 4.19845 36173 ft 444 kts 334°
2026-04-15 10:33 58.71632 4.15127 36171 ft 444 kts 334°
2026-04-15 10:34 58.77306 4.10377 36172 ft 444 kts 334°
2026-04-15 10:34 58.82967 4.05623 36174 ft 443 kts 334°
2026-04-15 10:35 58.88625 4.00854 36160 ft 444 kts 334°
2026-04-15 10:35 58.94254 3.96094 36160 ft 444 kts 334°
2026-04-15 10:36 58.99915 3.91293 36168 ft 444 kts 334°
2026-04-15 10:36 59.05586 3.86464 36165 ft 445 kts 334°
2026-04-15 10:37 59.11270 3.81609 36150 ft 446 kts 333°
2026-04-15 10:37 59.16977 3.76706 36155 ft 450 kts 333°
2026-04-15 10:38 59.22710 3.71773 36156 ft 450 kts 333°
2026-04-15 10:38 59.28446 3.66821 36168 ft 450 kts 333°
2026-04-15 10:39 59.34129 3.61895 36162 ft 449 kts 334°
2026-04-15 10:39 59.39848 3.56916 36151 ft 450 kts 333°
2026-04-15 10:40 59.45570 3.51913 36151 ft 449 kts 333°
2026-04-15 10:40 59.51284 3.46896 36153 ft 450 kts 333°
2026-04-15 10:41 59.57003 3.41864 36164 ft 450 kts 334°
2026-04-15 10:41 59.62721 3.36815 36150 ft 450 kts 333°
2026-04-15 10:42 59.68443 3.31744 36137 ft 450 kts 333°
2026-04-15 10:42 59.74122 3.26689 36142 ft 450 kts 333°
2026-04-15 10:43 59.79866 3.21552 36141 ft 455 kts 332°
2026-04-15 10:43 59.85649 3.16361 36157 ft 457 kts 333°
2026-04-15 10:44 59.91430 3.11159 36139 ft 455 kts 333°
2026-04-15 10:44 59.97199 3.05946 36137 ft 455 kts 333°
2026-04-15 10:45 60.02969 3.00711 36138 ft 455 kts 333°
2026-04-15 10:45 60.08724 2.95469 36138 ft 455 kts 333°
2026-04-15 10:46 60.14487 2.90200 36134 ft 455 kts 333°
2026-04-15 10:46 60.20240 2.84921 36120 ft 454 kts 333°
2026-04-15 10:47 60.25958 2.79653 36121 ft 455 kts 333°
2026-04-15 10:47 60.31703 2.74341 36118 ft 454 kts 333°
2026-04-15 10:48 60.36487 2.69899 36119 ft 454 kts 333°
2026-04-15 10:48 60.42250 2.64524 36112 ft 458 kts 332°
2026-04-15 10:49 60.49001 2.58207 36113 ft 460 kts 333°
2026-04-15 10:49 60.53878 2.53631 36114 ft 460 kts 332°
2026-04-15 10:50 60.59674 2.48170 36111 ft 459 kts 333°
2026-04-15 10:50 60.65435 2.42718 36109 ft 459 kts 332°
2026-04-15 10:51 60.66209 2.41985 36114 ft 460 kts 332°